Santa Monica, CA

5:34 PM PST on February 25, 2017 (GMT -0800)
Santa Monica Municipal

Weather History for KSMO - November, 2012

Change the Weather History Date:

Friday, November 16, 2012

  Actual Average Record
Temperature  
Mean Temperature 64 °F -  
Max Temperature 71 °F 71 °F 89 °F (1976)
Min Temperature 57 °F 51 °F 38 °F (1964)
Degree Days  
Heating Degree Days 1    
Growing Degree Days 14 (Base 50)    
Moisture  
Dew Point 50 °F    
Average Humidity 64    
Maximum Humidity 83    
Minimum Humidity 42    
Precipitation  
Precipitation 0.03 in - - ()
Sea Level Pressure  
Sea Level Pressure 30.07 in    
Wind  
Wind Speed 1 mph (SW)    
Max Wind Speed 8 mph    
Max Gust Speed -    
Visibility 9 miles    
Events Rain    
Averages and records for this station are not official NWS values.
T = Trace of Precipitation, MM = Missing Value Source: NWS Daily Summary

Daily Weather History Graph

Daily Weather History Graph

Search for Another Location

Airport or City:

Trip Planner

Search our weather history database for the weather conditions in past years. The results will help you decide how hot, cold, wet, or windy it might be!

Date:

Astronomy

Nov. 16, 2012 Rise Set
Actual Time 6:27 AM PST 4:49 PM PST
Civil Twilight 6:01 AM PST 5:15 PM PST
Nautical Twilight 5:30 AM PST 5:46 PM PST
Astronomical Twilight 5:01 AM PST 6:15 PM PST
Moon 9:24 AM PST (11/16) 7:55 PM PST (11/16)
Length of Visible Light 11h 14m
Length of Day
10h 21m
Waxing Crescent, 12% of the Moon is Illuminated
Nov 16
Waxing Crescent
Nov 20
First Quarter
Nov 28
Full
Dec 6
Last Quarter
Dec 13
New

Hourly Weather History & Observations

Time (PST) Temp. Dew Point Humidity Pressure Visibility Wind Dir Wind Speed Gust Speed Precip Events Conditions
12:51 AM 57.9 °F 46.9 °F 67% 30.09 in 10.0 mi Calm Calm - 0.01 in Rain Light Rain
1:51 AM 57.9 °F 46.0 °F 65% 30.08 in 9.0 mi Calm Calm - 0.00 in Rain Light Rain
2:51 AM 57.0 °F 48.0 °F 72% 30.08 in 10.0 mi Calm Calm - 0.01 in Rain Light Rain
4:51 AM 57.0 °F 46.0 °F 67% 30.07 in 10.0 mi Calm Calm - N/A   Overcast
5:51 AM 57.9 °F 44.1 °F 60% 30.08 in 10.0 mi North 3.5 mph - N/A   Overcast
6:51 AM 57.9 °F 45.0 °F 62% 30.08 in 10.0 mi Calm Calm - N/A   Overcast
7:51 AM 59.0 °F 46.9 °F 64% 30.11 in 10.0 mi Calm Calm - N/A   Overcast
8:51 AM 62.1 °F 46.0 °F 56% 30.12 in 10.0 mi Calm Calm - N/A   Overcast
9:51 AM 64.0 °F 45.0 °F 50% 30.12 in 10.0 mi Variable 3.5 mph - N/A   Overcast
10:51 AM 66.0 °F 43.0 °F 43% 30.12 in 10.0 mi Calm Calm - N/A   Overcast
11:51 AM 66.9 °F 46.0 °F 47% 30.09 in 10.0 mi East 4.6 mph - N/A   Mostly Cloudy
12:51 PM 70.0 °F 50.0 °F 49% 30.06 in 10.0 mi Variable 3.5 mph - N/A   Scattered Clouds
1:51 PM 71.1 °F 46.9 °F 42% 30.03 in 10.0 mi SSE 5.8 mph - N/A   Partly Cloudy
2:51 PM 68.0 °F 48.0 °F 49% 30.02 in 10.0 mi SW 5.8 mph - N/A   Mostly Cloudy
3:51 PM 64.0 °F 52.0 °F 65% 30.04 in 10.0 mi WSW 8.1 mph - N/A   Overcast
4:51 PM 63.0 °F 52.0 °F 67% 30.04 in 10.0 mi SW 5.8 mph - N/A   Overcast
5:51 PM 63.0 °F 54.0 °F 72% 30.04 in 10.0 mi SW 3.5 mph - N/A   Overcast
6:51 PM 63.0 °F 54.0 °F 72% 30.05 in 9.0 mi Calm Calm - N/A   Overcast
7:51 PM 63.0 °F 54.0 °F 72% 30.06 in 8.0 mi Calm Calm - N/A   Overcast
8:51 PM 63.0 °F 54.0 °F 72% 30.07 in 9.0 mi Calm Calm - N/A   Overcast
9:51 PM 63.0 °F 54.0 °F 72% 30.08 in 8.0 mi SW 4.6 mph - N/A   Overcast
10:51 PM 63.0 °F 55.0 °F 75% 30.08 in 7.0 mi Calm Calm - 0.00 in Rain Light Rain
11:03 PM 62.6 °F 55.4 °F 77% 30.08 in 6.0 mi Calm Calm - 0.01 in Rain Light Rain
11:32 PM 62.6 °F 55.4 °F 77% 30.08 in 7.0 mi Calm Calm - 0.01 in   Overcast
11:51 PM 61.0 °F 55.9 °F 83% 30.07 in 9.0 mi Calm Calm - 0.01 in   Overcast